Tracking 19846 objects as of 21-Sep-2019
HD Live streaming from Space Station
objects crossing your sky now

SL-16 DEB

Track SL-16 DEB now!
10-day predictions


NORAD ID: 43352
Int'l Code: 1995-058M
Perigee: 771.6 km
Apogee: 782.1 km
Inclination: 71.0 °
Period: 100.2 minutes
Semi major axis: 7147 km
RCS: Unknown
Launch date: October 31, 1995
Source: Commonwealth of Independent States (former USSR) (CIS)
Launch site: TYURATAM MISSILE AND SPACE COMPLEX (TTMTR)

Note: This is SATELLITE DEBRIS
aabbcc
Your satellite tracking list
Your tracking list is empty




NASA's NSSDC Master Catalog

Two Line Element Set (TLE):
1 43352U 95058M   19263.36274941  .00003463  00000-0  11923-2 0  9995
2 43352  71.0097   6.6636 0007336 358.6138   1.4975 14.36624456259444
Source of the keplerian elements: AFSPC